Time,TemperatureF,DewpointF,PressureIn,WindDirection,WindDirectionDegrees,WindSpeedMPH,WindSpeedGustMPH,Humidity,HourlyPrecipIn,Conditions,Clouds,dailyrainin,SoftwareType,DateUTC
2013-08-30 00:09:00,71.6,70.0,29.97,SSE,163,0.0,0.0,94,0.00,,,0.00,weatherlink.com 1.10,2013-08-30 04:09:00,
2013-08-30 00:24:00,71.2,69.0,29.97,SSE,163,0.0,0.0,94,0.00,,,0.00,weatherlink.com 1.10,2013-08-30 04:24:00,
2013-08-30 00:39:00,70.8,69.0,29.97,SSE,163,0.0,0.0,94,0.00,,,0.00,weatherlink.com 1.10,2013-08-30 04:39:00,
2013-08-30 00:54:00,70.4,69.0,29.97,SSE,163,0.0,0.0,95,0.00,,,0.00,weatherlink.com 1.10,2013-08-30 04:54:00,
2013-08-30 01:09:00,70.5,69.0,29.97,SSE,163,0.0,0.0,96,0.00,,,0.00,weatherlink.com 1.10,2013-08-30 05:09:00,
2013-08-30 01:24:00,70.5,69.0,29.97,SSE,163,0.0,0.0,96,0.00,,,0.00,weatherlink.com 1.10,2013-08-30 05:24:00,
2013-08-30 01:39:00,70.2,69.0,29.97,SSE,163,0.0,0.0,95,0.00,,,0.00,weatherlink.com 1.10,2013-08-30 05:39:00,
2013-08-30 01:54:00,69.8,68.0,29.97,SSE,163,0.0,0.0,95,0.00,,,0.00,weatherlink.com 1.10,2013-08-30 05:54:00,
2013-08-30 02:09:00,69.3,68.0,29.97,SSE,163,0.0,0.0,95,0.00,,,0.00,weatherlink.com 1.10,2013-08-30 06:09:00,
2013-08-30 02:24:00,69.2,68.0,29.97,SSE,163,0.0,0.0,96,0.00,,,0.00,weatherlink.com 1.10,2013-08-30 06:24:00,
2013-08-30 02:39:00,69.0,68.0,29.97,SSE,163,0.0,0.0,96,0.00,,,0.00,weatherlink.com 1.10,2013-08-30 06:39:00,
2013-08-30 02:54:00,69.0,68.0,29.96,SSE,163,0.0,0.0,96,0.00,,,0.00,weatherlink.com 1.10,2013-08-30 06:54:00,
2013-08-30 03:09:00,68.9,68.0,29.96,SSE,163,0.0,0.0,96,0.00,,,0.00,weatherlink.com 1.10,2013-08-30 07:09:00,
2013-08-30 03:24:00,68.6,68.0,29.96,SSE,163,0.0,0.0,96,0.00,,,0.00,weatherlink.com 1.10,2013-08-30 07:24:00,
2013-08-30 03:39:00,68.5,67.0,29.96,SSE,163,0.0,0.0,96,0.00,,,0.00,weatherlink.com 1.10,2013-08-30 07:39:00,
2013-08-30 03:54:00,68.4,68.0,29.96,SSE,163,0.0,0.0,97,0.00,,,0.00,weatherlink.com 1.10,2013-08-30 07:54:00,
2013-08-30 04:09:00,68.1,67.0,29.95,SSE,163,0.0,0.0,96,0.00,,,0.00,weatherlink.com 1.10,2013-08-30 08:09:00,
2013-08-30 04:24:00,67.7,67.0,29.95,SSE,163,0.0,0.0,96,0.00,,,0.00,weatherlink.com 1.10,2013-08-30 08:24:00,
2013-08-30 04:39:00,67.7,67.0,29.95,SSE,163,0.0,0.0,97,0.00,,,0.00,weatherlink.com 1.10,2013-08-30 08:39:00,
2013-08-30 04:54:00,67.5,67.0,29.95,SSE,163,0.0,0.0,97,0.00,,,0.00,weatherlink.com 1.10,2013-08-30 08:54:00,
2013-08-30 05:09:00,67.3,67.0,29.94,SSE,163,0.0,0.0,97,0.00,,,0.00,weatherlink.com 1.10,2013-08-30 09:09:00,
2013-08-30 05:24:00,67.2,66.0,29.95,SSE,163,0.0,0.0,97,0.00,,,0.00,weatherlink.com 1.10,2013-08-30 09:24:00,
2013-08-30 05:39:00,67.0,66.0,29.95,SSE,163,0.0,0.0,97,0.00,,,0.00,weatherlink.com 1.10,2013-08-30 09:39:00,
2013-08-30 05:54:00,67.0,66.0,29.95,SSE,163,0.0,0.0,97,0.00,,,0.00,weatherlink.com 1.10,2013-08-30 09:54:00,
2013-08-30 06:09:00,67.0,66.0,29.94,SSE,163,0.0,0.0,97,0.00,,,0.00,weatherlink.com 1.10,2013-08-30 10:09:00,
2013-08-30 06:24:00,67.0,66.0,29.94,SSE,163,0.0,0.0,97,0.00,,,0.00,weatherlink.com 1.10,2013-08-30 10:24:00,
2013-08-30 06:39:00,66.9,66.0,29.94,SSE,163,0.0,0.0,97,0.00,,,0.00,weatherlink.com 1.10,2013-08-30 10:39:00,
2013-08-30 06:54:00,66.7,66.0,29.94,SSE,163,0.0,0.0,97,0.00,,,0.00,weatherlink.com 1.10,2013-08-30 10:54:00,
2013-08-30 07:10:00,66.6,66.0,29.94,SSE,163,0.0,0.0,97,0.00,,,0.00,weatherlink.com 1.10,2013-08-30 11:10:00,
2013-08-30 07:25:00,66.5,66.0,29.94,SSE,163,0.0,0.0,98,0.00,,,0.00,weatherlink.com 1.10,2013-08-30 11:25:00,
2013-08-30 07:40:00,66.5,66.0,29.94,SSE,163,0.0,0.0,98,0.00,,,0.00,weatherlink.com 1.10,2013-08-30 11:40:00,
2013-08-30 07:55:00,66.7,66.0,29.94,SSE,163,0.0,0.0,98,0.00,,,0.00,weatherlink.com 1.10,2013-08-30 11:55:00,
2013-08-30 08:10:00,66.9,66.0,29.94,SSE,163,0.0,0.0,98,0.00,,,0.00,weatherlink.com 1.10,2013-08-30 12:10:00,
2013-08-30 08:25:00,67.3,67.0,29.94,SSE,163,0.0,0.0,98,0.00,,,0.00,weatherlink.com 1.10,2013-08-30 12:25:00,
2013-08-30 08:40:00,67.7,67.0,29.94,SSE,163,0.0,0.0,98,0.00,,,0.00,weatherlink.com 1.10,2013-08-30 12:40:00,
2013-08-30 08:55:00,68.0,68.0,29.95,SSE,163,0.0,0.0,98,0.00,,,0.00,weatherlink.com 1.10,2013-08-30 12:55:00,
2013-08-30 09:10:00,68.5,68.0,29.94,SE,143,0.0,1.0,98,0.00,,,0.00,weatherlink.com 1.10,2013-08-30 13:10:00,
2013-08-30 09:25:00,69.3,69.0,29.94,South,175,0.0,1.0,98,0.00,,,0.00,weatherlink.com 1.10,2013-08-30 13:25:00,
2013-08-30 09:40:00,70.1,70.0,29.93,South,180,0.0,2.0,98,0.00,,,0.00,weatherlink.com 1.10,2013-08-30 13:40:00,
2013-08-30 09:55:00,70.9,70.0,29.93,SE,142,0.0,2.0,98,0.00,,,0.00,weatherlink.com 1.10,2013-08-30 13:55:00,
2013-08-30 10:10:00,71.8,71.0,29.93,West,281,0.0,2.0,97,0.00,,,0.00,weatherlink.com 1.10,2013-08-30 14:10:00,
2013-08-30 10:25:00,73.0,72.0,29.93,South,169,0.0,3.0,95,0.00,,,0.00,weatherlink.com 1.10,2013-08-30 14:25:00,
2013-08-30 10:40:00,74.1,72.0,29.92,SE,136,1.0,3.0,92,0.00,,,0.00,weatherlink.com 1.10,2013-08-30 14:40:00,
2013-08-30 10:55:00,75.2,72.0,29.91,SE,146,0.0,2.0,90,0.00,,,0.00,weatherlink.com 1.10,2013-08-30 14:55:00,
2013-08-30 11:10:00,76.5,73.0,29.92,SSW,211,1.0,2.0,89,0.00,,,0.00,weatherlink.com 1.10,2013-08-30 15:10:00,
2013-08-30 11:25:00,78.0,73.0,29.91,South,189,0.0,4.0,84,0.00,,,0.00,weatherlink.com 1.10,2013-08-30 15:25:00,
2013-08-30 11:40:00,78.8,73.0,29.91,West,263,0.0,6.0,82,0.00,,,0.00,weatherlink.com 1.10,2013-08-30 15:40:00,
2013-08-30 11:55:00,80.4,74.0,29.90,NNW,334,0.0,4.0,81,0.00,,,0.00,weatherlink.com 1.10,2013-08-30 15:55:00,
2013-08-30 12:10:00,82.4,73.0,29.90,NW,313,0.0,5.0,74,0.00,,,0.00,weatherlink.com 1.10,2013-08-30 16:10:00,
2013-08-30 12:25:00,84.2,74.0,29.89,WNW,288,0.0,4.0,71,0.00,,,0.00,weatherlink.com 1.10,2013-08-30 16:25:00,
2013-08-30 12:40:00,85.2,75.0,29.89,SW,220,0.0,4.0,72,0.00,,,0.00,weatherlink.com 1.10,2013-08-30 16:40:00,
2013-08-30 12:55:00,86.1,75.0,29.89,SW,232,0.0,4.0,69,0.00,,,0.00,weatherlink.com 1.10,2013-08-30 16:55:00,
2013-08-30 13:10:00,87.0,74.0,29.88,WNW,290,1.0,5.0,65,0.00,,,0.00,weatherlink.com 1.10,2013-08-30 17:10:00,
2013-08-30 13:25:00,87.7,75.0,29.88,NW,318,2.0,6.0,67,0.00,,,0.00,weatherlink.com 1.10,2013-08-30 17:25:00,
2013-08-30 13:40:00,87.4,74.0,29.87,NNW,346,1.0,7.0,64,0.00,,,0.00,weatherlink.com 1.10,2013-08-30 17:40:00,
2013-08-30 13:56:00,88.5,75.0,29.87,WNW,286,1.0,3.0,64,0.00,,,0.00,weatherlink.com 1.10,2013-08-30 17:56:00,
2013-08-30 14:11:00,88.9,75.0,29.87,South,188,1.0,5.0,63,0.00,,,0.00,weatherlink.com 1.10,2013-08-30 18:11:00,
2013-08-30 14:26:00,88.7,74.0,29.87,WNW,299,0.0,6.0,62,0.00,,,0.00,weatherlink.com 1.10,2013-08-30 18:26:00,
2013-08-30 14:41:00,89.5,75.0,29.86,WSW,239,2.0,7.0,63,0.00,,,0.00,weatherlink.com 1.10,2013-08-30 18:41:00,
2013-08-30 14:56:00,90.2,75.0,29.86,WSW,243,1.0,6.0,62,0.00,,,0.00,weatherlink.com 1.10,2013-08-30 18:56:00,
2013-08-30 15:11:00,90.6,74.0,29.85,WSW,257,2.0,4.0,59,0.00,,,0.00,weatherlink.com 1.10,2013-08-30 19:11:00,
2013-08-30 15:26:00,91.2,75.0,29.84,West,279,0.0,7.0,60,0.00,,,0.00,weatherlink.com 1.10,2013-08-30 19:26:00,
2013-08-30 15:41:00,91.4,74.0,29.83,South,178,2.0,3.0,56,0.00,,,0.00,weatherlink.com 1.10,2013-08-30 19:41:00,
2013-08-30 15:56:00,91.4,75.0,29.83,WSW,237,0.0,3.0,59,0.00,,,0.00,weatherlink.com 1.10,2013-08-30 19:56:00,
2013-08-30 16:11:00,91.2,77.0,29.82,WNW,296,1.0,4.0,63,0.00,,,0.00,weatherlink.com 1.10,2013-08-30 20:11:00,
2013-08-30 16:26:00,91.5,76.0,29.82,NW,308,0.0,6.0,60,0.00,,,0.00,weatherlink.com 1.10,2013-08-30 20:26:00,
2013-08-30 16:41:00,90.8,74.0,29.81,SW,229,2.0,3.0,58,0.00,,,0.00,weatherlink.com 1.10,2013-08-30 20:41:00,
2013-08-30 16:56:00,89.5,75.0,29.81,SSE,161,1.0,2.0,63,0.00,,,0.00,weatherlink.com 1.10,2013-08-30 20:56:00,
2013-08-30 17:11:00,88.7,74.0,29.80,West,267,0.0,3.0,63,0.00,,,0.00,weatherlink.com 1.10,2013-08-30 21:11:00,
2013-08-30 17:26:00,87.4,74.0,29.80,NNW,339,0.0,3.0,64,0.00,,,0.00,weatherlink.com 1.10,2013-08-30 21:26:00,
2013-08-30 17:41:00,86.3,75.0,29.79,WSW,252,0.0,2.0,69,0.00,,,0.00,weatherlink.com 1.10,2013-08-30 21:41:00,
2013-08-30 17:56:00,85.4,75.0,29.79,West,259,0.0,2.0,71,0.00,,,0.00,weatherlink.com 1.10,2013-08-30 21:56:00,
2013-08-30 18:11:00,84.7,76.0,29.78,SE,138,0.0,2.0,74,0.00,,,0.00,weatherlink.com 1.10,2013-08-30 22:11:00,
2013-08-30 18:26:00,84.0,75.0,29.78,South,184,0.0,2.0,73,0.00,,,0.00,weatherlink.com 1.10,2013-08-30 22:26:00,
2013-08-30 18:42:00,83.6,75.0,29.78,South,182,0.0,3.0,75,0.00,,,0.00,weatherlink.com 1.10,2013-08-30 22:42:00,
2013-08-30 18:56:00,83.2,76.0,29.77,NNW,329,0.0,0.0,78,0.00,,,0.00,weatherlink.com 1.10,2013-08-30 22:56:00,
2013-08-30 19:11:00,82.4,75.0,29.77,West,269,0.0,2.0,78,0.00,,,0.00,weatherlink.com 1.10,2013-08-30 23:11:00,
2013-08-30 19:26:00,81.8,75.0,29.77,SW,215,0.0,0.0,80,0.00,,,0.00,weatherlink.com 1.10,2013-08-30 23:26:00,
2013-08-30 19:41:00,80.9,75.0,29.76,SW,215,0.0,0.0,81,0.00,,,0.00,weatherlink.com 1.10,2013-08-30 23:41:00,
2013-08-30 19:56:00,80.1,74.0,29.76,SW,215,0.0,0.0,82,0.00,,,0.00,weatherlink.com 1.10,2013-08-30 23:56:00,
2013-08-30 20:11:00,79.5,74.0,29.77,SW,215,0.0,0.0,82,0.00,,,0.00,weatherlink.com 1.10,2013-08-31 00:11:00,
2013-08-30 20:26:00,78.9,73.0,29.77,SW,215,0.0,0.0,83,0.00,,,0.00,weatherlink.com 1.10,2013-08-31 00:26:00,
2013-08-30 20:41:00,78.5,73.0,29.77,SW,215,0.0,0.0,84,0.00,,,0.00,weatherlink.com 1.10,2013-08-31 00:41:00,
2013-08-30 20:56:00,78.2,73.0,29.78,SW,215,0.0,0.0,85,0.00,,,0.00,weatherlink.com 1.10,2013-08-31 00:56:00,
2013-08-30 21:11:00,77.8,73.0,29.78,SW,215,0.0,0.0,85,0.00,,,0.00,weatherlink.com 1.10,2013-08-31 01:11:00,
2013-08-30 21:26:00,77.6,73.0,29.78,SW,215,0.0,0.0,86,0.00,,,0.00,weatherlink.com 1.10,2013-08-31 01:26:00,
2013-08-30 21:41:00,77.5,73.0,29.78,SW,215,0.0,0.0,86,0.00,,,0.00,weatherlink.com 1.10,2013-08-31 01:41:00,
2013-08-30 21:56:00,77.7,73.0,29.77,SW,215,0.0,0.0,85,0.00,,,0.00,weatherlink.com 1.10,2013-08-31 01:56:00,
2013-08-30 22:11:00,78.2,73.0,29.75,SW,215,0.0,0.0,84,0.00,,,0.00,weatherlink.com 1.10,2013-08-31 02:11:00,
2013-08-30 22:26:00,78.2,73.0,29.74,SW,215,0.0,1.0,84,0.00,,,0.00,weatherlink.com 1.10,2013-08-31 02:26:00,
2013-08-30 22:41:00,78.3,73.0,29.73,ESE,107,1.0,3.0,84,0.00,,,0.00,weatherlink.com 1.10,2013-08-31 02:41:00,
2013-08-30 22:56:00,78.6,74.0,29.76,WSW,248,3.0,7.0,85,0.00,,,0.00,weatherlink.com 1.10,2013-08-31 02:56:00,
2013-08-30 23:11:00,79.8,74.0,29.73,WNW,283,1.0,10.0,81,0.00,,,0.00,weatherlink.com 1.10,2013-08-31 03:11:00,
2013-08-30 23:26:00,79.8,74.0,29.73,SSE,161,0.0,3.0,82,0.00,,,0.00,weatherlink.com 1.10,2013-08-31 03:26:00,
2013-08-30 23:41:00,78.5,73.0,29.74,West,267,0.0,2.0,84,0.00,,,0.00,weatherlink.com 1.10,2013-08-31 03:41:00,
2013-08-30 23:56:00,78.4,73.0,29.74,West,263,3.0,4.0,84,0.00,,,0.00,weatherlink.com 1.10,2013-08-31 03:56:00,